[[{"header":{"parameterUnit":"m.s-1","parameterCategory":2,"la1":30.2991,"la2":30.254,"lo1":-89.0895,"lo2":-89.0444,"dy":0.0017,"dx":0.0017,"nx":28,"ny":28,"refTime":"2025-04-28T09:00:00:Z","depth":"0","parameterNumber":2,"parameterNumberName":"U-component_of_CURRENTS"},"data":[0,0,0,0,0,0,0,0,0,0,0,0,0,0,0,0,0,0,0,0,0,0,0,0,0,0,0,0,0,0,0,0,0,0,0,0,0,0,0,0,0,0,0,0,0,0,0,0,0,0,0,0,0,0,0,0,0,0,0.2013,0.2014,0,0.2082,0.2083,0.2083,0.2103,0.2102,0.2102,0.2102,0.2131,0.2132,0.2133,0,0,0,0,0,0,0,0,0,0,0,0,0,0.1926,0.1928,0.2013,0.2014,0.2015,0.2082,0.2083,0.2083,0.2103,0.2102,0.2102,0.2102,0.2131,0.2132,0.2133,0,0,0,0,0,0,0,0,0,0,0,0,0,0.1975,0.1928,0.2013,0.2034,0.2036,0.2082,0.2083,0.2084,0.2103,0.2102,0.2102,0.2102,0.213,0.2132,0.2133,0.2151,0,0,0.2138,0.2139,0,0,0,0,0,0,0,0,0.1972,0.1978,0.203,0.2032,0.2036,0.2084,0.2063,0.2105,0.2103,0.2076,0.2102,0.2101,0.2113,0.2116,0.2128,0.2152,0.2153,0.2138,0.2139,0.214,0.214,0,0,0,0,0,0,0,0.1969,0.1976,0.2039,0.2031,0.2034,0.2049,0.2055,0.2071,0.2094,0.2079,0.2081,0.209,0.2114,0.2127,0.2129,0.2154,0.2138,0.2139,0.214,0.2141,0.222,0.2221,0,0,0,0,0,0,0.1962,0.1972,0.2037,0.2041,0.2004,0.2051,0.2058,0.2068,0.2095,0.21,0.209,0.2091,0.2125,0.2127,0.213,0.217,0.214,0.2141,0.2142,0.2219,0.222,0.2221,0,0,0,0,0,0,0.196,0.1967,0.2034,0.2009,0.2019,0.2053,0.2064,0.207,0.2086,0.2105,0.2108,0.2102,0.2124,0.2128,0.2153,0.217,0.2142,0.2143,0.2217,0.2219,0.2221,0.2238,0,0,0,0,0,0,0.1957,0.1966,0.1972,0.2009,0.202,0.2067,0.2065,0.2071,0.2093,0.2094,0.2115,0.2118,0.2124,0.2151,0.2155,0.2172,0.2144,0.2216,0.2218,0.222,0.2236,0.2241,0.2244,0,0,0,0,0,0.1954,0.1965,0.1972,0.198,0.2027,0.2068,0.2076,0.2097,0.2094,0.2108,0.2122,0.2117,0.2168,0.2153,0.2157,0.2175,0.2215,0.2217,0.222,0.2235,0.224,0.2244,0,0,0,0,0,0,0.1929,0.1969,0.1977,0.1999,0.2033,0.2072,0.2088,0.21,0.2123,0.2122,0.2131,0.2135,0.2166,0.217,0.2154,0.2206,0.2191,0.2195,0.2201,0.2206,0.221,0.2211,0.2146,0,0,0,0,0,0.1927,0.1945,0.1986,0.2003,0.2021,0.2054,0.2072,0.209,0.2115,0.2125,0.2139,0.2156,0.2181,0.2191,0.2212,0.2238,0.2278,0.2254,0.2257,0.2261,0.2266,0.2338,0.235,0.223,0.223,0.223,0,0,0.192,0.1946,0.1955,0.1999,0.2026,0.206,0.2064,0.2098,0.2124,0.2124,0.2157,0.2171,0.2192,0.2225,0.2238,0.2228,0.2323,0.2264,0.2266,0.227,0.2342,0.2354,0.2365,0.2232,0.2231,0.2231,0,0,0.1924,0.1942,0.1963,0.1995,0.204,0.2065,0.2075,0.2117,0.2134,0.2168,0.2178,0.2202,0.2233,0.2255,0.2269,0.2307,0.2343,0.2314,0.2333,0.2403,0.2414,0.2423,0.252,0.2538,0.2314,0.2314,0.2314,0,0.1914,0.1949,0.1975,0.2009,0.2037,0.2066,0.21,0.2126,0.2169,0.2189,0.218,0.2244,0.225,0.2302,0.2311,0.2316,0.2373,0.231,0.2409,0.2419,0.2428,0.2524,0.2544,0.2315,0.2315,0.2315,0.2315,0,0.194,0.1971,0.1988,0.2038,0.2069,0.2105,0.2147,0.2174,0.2192,0.2219,0.227,0.2287,0.2329,0.2331,0.2329,0.24,0.2427,0.2407,0.2395,0.2442,0.254,0.256,0.2317,0.2316,0.2316,0.2316,0,0,0.1913,0.199,0.1997,0.2026,0.209,0.2118,0.2164,0.2219,0.2258,0.2285,0.2343,0.2365,0.238,0.2397,0.2405,0.2448,0.2562,0.2454,0.2457,0.2548,0.2753,0.2768,0.2792,0.2563,0.2566,0.2568,0.2805,0,0.1927,0.1987,0.2026,0.2082,0.2116,0.2161,0.2205,0.2255,0.2298,0.2361,0.2386,0.2441,0.2406,0.2435,0.2475,0.2547,0.2611,0.2501,0.2696,0.2702,0.2707,0.2813,0.2734,0.2938,0.2825,0.2829,0.2831,0,0.194,0.1981,0.2035,0.211,0.213,0.2163,0.2242,0.2292,0.238,0.2417,0.2474,0.251,0.259,0.2545,0.2699,0.2637,0.2698,0.2741,0.2751,0.2769,0.2753,0.2868,0.2979,0.2901,0.2862,0.286,0.2857,0,0.1905,0.1986,0.2027,0.2053,0.214,0.2168,0.2216,0.2301,0.236,0.2465,0.2533,0.2615,0.2693,0.2764,0.2853,0.2795,0.3034,0.2968,0.3045,0.3049,0.3021,0.3016,0.3073,0.3082,0.3081,0.3081,0.308,0,0.1905,0.1936,0.2011,0.2033,0.2083,0.2151,0.2223,0.2282,0.2396,0.2486,0.2563,0.266,0.2752,0.2889,0.2929,0.3082,0.3111,0.3088,0.3118,0.3028,0.3021,0.2981,0.2932,0.3089,0.3087,0.3086,0.3084,0,0.1859,0.1913,0.1958,0.2041,0.2067,0.21,0.2219,0.2276,0.2397,0.2527,0.2572,0.2745,0.2927,0.3036,0.3196,0.321,0.325,0.3361,0.3265,0.3278,0.3227,0.3183,0.3169,0.3066,0.3487,0.3489,0.3491,0,0.1839,0.1858,0.194,0.1965,0.2,0.2069,0.2118,0.2246,0.2319,0.2573,0.2632,0.2867,0.3015,0.329,0.3365,0.3505,0.3351,0.3496,0.3341,0.3253,0.3227,0.3049,0.2947,0.3335,0.3336,0.3336,0.3336,0,0.1792,0.182,0.1859,0.1913,0.1958,0.2025,0.2111,0.2174,0.2351,0.249,0.2696,0.2851,0.3147,0.3274,0.3477,0.3523,0.3328,0.3502,0.3432,0.3144,0.2935,0.284,0.3169,0.3337,0.3337,0.3337,0.3337,0.3337,0.1746,0.1759,0.1812,0.1866,0.191,0.1972,0.2009,0.2124,0.2258,0.2461,0.2654,0.2869,0.314,0.3411,0.3439,0.3451,0.3362,0.3363,0.3338,0.3181,0.3,0.3348,0.3519,0.352,0.3521,0.3522,0.3522,0,0.1695,0.1729,0.1767,0.1825,0.1847,0.1901,0.1994,0.2033,0.2153,0.2377,0.256,0.2877,0.3069,0.3238,0.338,0.3304,0.3099,0.3224,0.2942,0.2861,0.3223,0.3132,0.3198,0.3198,0.3198,0.3198,0.3198,0.3198,0.1673,0.1696,0.1734,0.1759,0.1788,0.1805,0.1843,0.1912,0.2042,0.2253,0.2435,0.2632,0.2988,0.3262,0.3258,0.3174,0.2889,0.281,0.2746,0.3003,0.3011,0.3019,0.292,0.294,0.294,0.2248,0.2243,0.2239]},{"header":{"parameterUnit":"m.s-1","parameterCategory":2,"la1":30.2991,"la2":30.254,"lo1":-89.0895,"lo2":-89.0444,"dy":0.0017,"dx":0.0017,"nx":28,"ny":28,"refTime":"2025-04-28T09:00:00:Z","depth":"0","parameterNumber":3,"parameterNumberName":"V-component_of_CURRENTS"},"data":[0,0,0,0,0,0,0,0,0,0,0,0,0,0,0,0,0,0,0,0,0,0,0,0,0,0,0,0,0,0,0,0,0,0,0,0,0,0,0,0,0,0,0,0,0,0,0,0,0,0,0,0,0,0,0,0,0,0,0.0079,0.0079,0,0.0025,0.0024,0.0023,-0.0033,-0.0033,-0.0034,-0.0035,-0.0142,-0.0144,-0.0146,0,0,0,0,0,0,0,0,0,0,0,0,0,0.0107,0.0107,0.0079,0.0078,0.0078,0.0025,0.0024,0.0023,-0.0033,-0.0034,-0.0034,-0.0035,-0.0141,-0.0144,-0.0146,0,0,0,0,0,0,0,0,0,0,0,0,0,0.0076,0.0107,0.0079,0.0046,0.0042,0.0025,0.0024,0.0023,-0.0033,-0.0034,-0.0034,-0.0035,-0.014,-0.0143,-0.0147,-0.0152,0,0,-0.0158,-0.0159,0,0,0,0,0,0,0,0,0.0078,0.0075,0.0051,0.0048,0.0044,0.0004,-0.0005,-0.0038,-0.0033,-0.0007,-0.0035,-0.0036,-0.0096,-0.0103,-0.0114,-0.0157,-0.0162,-0.0158,-0.016,-0.0162,-0.0163,0,0,0,0,0,0,0,0.008,0.0077,0.0055,0.0051,0.0046,0.0024,0.0019,-0.0012,-0.0049,-0.0009,-0.0013,-0.0015,-0.0098,-0.011,-0.0117,-0.0163,-0.0158,-0.0161,-0.0163,-0.0164,-0.0235,-0.0235,0,0,0,0,0,0,0.0094,0.0079,0.0057,0.0054,0.0062,0.0025,0.0018,0.0016,-0.0047,-0.0057,-0.0014,-0.0017,-0.0104,-0.0113,-0.0121,-0.0145,-0.0161,-0.0165,-0.0167,-0.0236,-0.0235,-0.0235,0,0,0,0,0,0,0.0095,0.0093,0.0059,0.0067,0.0061,0.0025,0.0022,0.0015,0.0003,-0.005,-0.0061,-0.0018,-0.0105,-0.0116,-0.0147,-0.0149,-0.0166,-0.017,-0.0236,-0.0236,-0.0235,-0.0183,0,0,0,0,0,0,0.0096,0.0093,0.0097,0.0068,0.0061,0.0055,0.0023,0.0015,0.0005,-0.0,-0.0057,-0.0068,-0.0106,-0.0141,-0.0151,-0.0154,-0.0172,-0.0236,-0.0236,-0.0235,-0.0185,-0.0181,-0.0178,0,0,0,0,0,0.0097,0.0111,0.0098,0.0095,0.0068,0.0056,0.0051,0.002,0.0006,0.0006,-0.0035,-0.0066,-0.0146,-0.0144,-0.0155,-0.0159,-0.0236,-0.0236,-0.0235,-0.0187,-0.0182,-0.0178,0,0,0,0,0,0,0.013,0.0106,0.0091,0.0097,0.008,0.0048,0.0049,0.0028,-0.0002,-0.0008,-0.0062,-0.0075,-0.0105,-0.0134,-0.0131,-0.0178,-0.0196,-0.0198,-0.0156,-0.0152,-0.0148,-0.0145,-0.0175,0,0,0,0,0,0.0139,0.0138,0.0114,0.0118,0.0114,0.0082,0.0075,0.0055,0.0026,0.0012,-0.0028,-0.0071,-0.011,-0.0131,-0.0168,-0.0189,-0.0206,-0.0199,-0.0195,-0.0192,-0.0197,-0.0225,-0.0224,-0.0233,-0.0233,-0.0233,0,0,0.0153,0.0141,0.0139,0.0125,0.0109,0.0105,0.0075,0.0071,0.006,0.0005,-0.002,-0.0058,-0.0112,-0.0141,-0.0157,-0.0167,-0.0192,-0.0191,-0.0188,-0.0195,-0.0224,-0.0223,-0.0223,-0.0233,-0.0233,-0.0233,0,0,0.0182,0.017,0.0179,0.0167,0.0151,0.013,0.0133,0.0104,0.0083,0.006,0.0014,-0.0024,-0.0074,-0.0119,-0.0148,-0.0143,-0.017,-0.0151,-0.0133,-0.016,-0.0159,-0.0159,-0.0148,-0.0147,-0.015,-0.015,-0.015,0,0.02,0.0204,0.0181,0.0186,0.018,0.0145,0.0152,0.0128,0.0091,0.0075,0.006,-0.0023,-0.0068,-0.0115,-0.012,-0.0136,-0.014,-0.0145,-0.0154,-0.0155,-0.0156,-0.0145,-0.0145,-0.0147,-0.0148,-0.0148,-0.0148,0,0.0232,0.0234,0.0242,0.023,0.0221,0.0224,0.019,0.0176,0.0149,0.012,0.0077,0.0016,-0.0032,-0.0055,-0.0091,-0.0122,-0.0116,-0.0143,-0.0164,-0.0151,-0.014,-0.0141,-0.0144,-0.0145,-0.0145,-0.0146,0,0,0.0272,0.0265,0.0267,0.0269,0.0244,0.0243,0.0225,0.02,0.02,0.0145,0.014,0.0049,0.0021,-0.0013,-0.0061,-0.0098,-0.0102,-0.012,-0.0123,-0.0104,-0.0129,-0.0128,-0.0129,-0.0129,-0.0129,-0.013,-0.0107,0,0.0303,0.0327,0.0307,0.0321,0.033,0.0291,0.0283,0.0253,0.0226,0.0217,0.0138,0.0116,0.0036,0.0028,-0.0026,-0.0075,-0.0108,-0.0104,-0.0148,-0.0149,-0.0147,-0.0132,-0.0143,-0.0125,-0.0108,-0.0108,-0.0108,0,0.0339,0.0349,0.0372,0.0371,0.0371,0.037,0.0357,0.035,0.0315,0.0298,0.0249,0.0204,0.0141,0.0083,-0.0017,-0.0006,-0.0068,-0.0117,-0.0117,-0.0141,-0.0152,-0.0142,-0.0128,-0.0303,-0.011,-0.011,-0.011,0,0.0383,0.0394,0.0414,0.0412,0.0404,0.0404,0.0401,0.0375,0.0394,0.0364,0.0395,0.0287,0.0286,0.0165,0.0059,0.0027,-0.0027,-0.0081,-0.0142,-0.0141,-0.0174,-0.0175,-0.0336,-0.0161,-0.0161,-0.0161,-0.0161,0,0.0423,0.0439,0.0438,0.0449,0.0482,0.0458,0.0498,0.0478,0.0492,0.0552,0.0453,0.0496,0.0306,0.0254,0.0114,0.0006,0.0016,-0.0134,-0.0143,-0.0152,-0.0151,-0.0325,-0.0423,-0.016,-0.016,-0.016,-0.016,0,0.0464,0.0463,0.049,0.0495,0.0505,0.0531,0.058,0.0618,0.0623,0.0712,0.0718,0.0669,0.0603,0.0424,0.0265,0.0115,-0.0111,-0.0062,-0.004,-0.0048,-0.0299,-0.0392,-0.0547,-0.0615,-0.0135,-0.0135,-0.0135,0,0.0486,0.0505,0.0535,0.0568,0.0573,0.062,0.0666,0.0678,0.0745,0.0839,0.0903,0.0866,0.0877,0.0648,0.0352,0.0116,-0.0071,-0.0059,-0.0157,-0.0313,-0.0424,-0.0493,-0.0543,-0.016,-0.0161,-0.0161,-0.0161,0,0.053,0.0539,0.0566,0.0643,0.0694,0.0768,0.0844,0.0924,0.0987,0.1081,0.1213,0.1235,0.1014,0.0768,0.0417,0.0224,-0.0192,-0.007,-0.0255,-0.0479,-0.0543,-0.061,-0.0148,-0.0162,-0.0162,-0.0162,-0.0162,-0.0162,0.0569,0.0606,0.0658,0.0737,0.0802,0.0928,0.1033,0.1141,0.1293,0.1472,0.1457,0.1531,0.1132,0.0649,0.0364,-0.0193,-0.0195,-0.0379,-0.0477,-0.053,-0.0621,-0.0142,-0.0161,-0.0161,-0.016,-0.016,-0.016,0,0.0645,0.0692,0.0759,0.0868,0.0969,0.0989,0.1166,0.13,0.1523,0.1644,0.176,0.1592,0.1111,0.0591,-0.0151,-0.0532,-0.0684,-0.0749,-0.088,-0.0912,-0.0507,-0.0536,-0.061,-0.061,-0.061,-0.0609,-0.0609,-0.0609,0.0695,0.0786,0.0831,0.1014,0.1092,0.1274,0.1399,0.1587,0.1716,0.1888,0.1908,0.1885,0.1473,0.016,-0.072,-0.0928,-0.1204,-0.1269,-0.1378,-0.1148,-0.1122,-0.1097,-0.115,-0.1352,-0.1353,-0.1745,-0.175,-0.1753]}],[{"header":{"parameterUnit":"m.s-1","parameterCategory":2,"la1":30.2991,"la2":30.254,"lo1":-89.0895,"lo2":-89.0444,"dy":0.0017,"dx":0.0017,"nx":28,"ny":28,"refTime":"2025-04-28T09:00:00:Z","depth":"2","parameterNumber":2,"parameterNumberName":"U-component_of_CURRENTS"},"data":[0,0,0,0,0,0,0,0,0,0,0,0,0,0,0,0,0,0,0,0,0,0,0,0,0,0,0,0,0,0,0,0,0,0,0,0,0,0,0,0,0,0,0,0,0,0,0,0,0,0,0,0,0,0,0,0,0,0,0.1934,0.1935,0,0.2006,0.2007,0.2008,0.2036,0.2035,0.2035,0.2034,0.2053,0.2054,0.2055,0,0,0,0,0,0,0,0,0,0,0,0,0,0.1849,0.1851,0.1934,0.1935,0.1936,0.2006,0.2007,0.2009,0.2036,0.2035,0.2035,0.2034,0.2053,0.2054,0.2055,0,0,0,0,0,0,0,0,0,0,0,0,0,0.1903,0.1851,0.1934,0.1956,0.1958,0.2006,0.2008,0.2009,0.2036,0.2035,0.2035,0.2034,0.2052,0.2054,0.2055,0.2077,0,0,0.2059,0.206,0,0,0,0,0,0,0,0,0.19,0.1906,0.1952,0.1954,0.1957,0.2009,0.1984,0.2028,0.2036,0.2009,0.2034,0.2034,0.2032,0.2035,0.2055,0.2078,0.2079,0.2059,0.206,0.2061,0.2061,0,0,0,0,0,0,0,0.1896,0.1903,0.1965,0.1953,0.1956,0.1972,0.1979,0.1993,0.2025,0.2011,0.2013,0.2017,0.2033,0.2053,0.2055,0.2079,0.2059,0.2061,0.2061,0.2062,0.2132,0.2133,0,0,0,0,0,0,0.1881,0.19,0.1963,0.1967,0.1923,0.1973,0.1981,0.1995,0.2026,0.2029,0.2018,0.2018,0.2051,0.2053,0.2056,0.2101,0.2061,0.2062,0.2063,0.2131,0.2133,0.2134,0,0,0,0,0,0,0.188,0.1887,0.196,0.1932,0.1942,0.1975,0.1991,0.1997,0.2023,0.203,0.2033,0.2037,0.2051,0.2054,0.2069,0.2101,0.2063,0.2064,0.213,0.2132,0.2133,0.218,0,0,0,0,0,0,0.1877,0.1886,0.1896,0.1932,0.1943,0.1992,0.1992,0.1999,0.2024,0.2026,0.2048,0.2049,0.2051,0.2067,0.207,0.2102,0.2065,0.2129,0.2131,0.2133,0.2177,0.2183,0.2188,0,0,0,0,0,0.1874,0.1887,0.1896,0.1904,0.1955,0.1992,0.2,0.2022,0.2026,0.2043,0.2051,0.2049,0.2082,0.2068,0.2072,0.2106,0.2128,0.213,0.2133,0.2175,0.2182,0.2188,0,0,0,0,0,0,0.1855,0.1892,0.1903,0.1927,0.1958,0.1996,0.2016,0.2029,0.2053,0.2055,0.2058,0.206,0.2089,0.2087,0.2072,0.2131,0.2107,0.211,0.2138,0.2144,0.215,0.2153,0.2066,0,0,0,0,0,0.1855,0.1876,0.1912,0.1933,0.1952,0.1987,0.2006,0.2023,0.2045,0.2057,0.2067,0.2081,0.2104,0.2113,0.2128,0.2157,0.2178,0.2182,0.2187,0.2192,0.2197,0.2259,0.2271,0.2142,0.2142,0.2141,0,0,0.1853,0.1876,0.1888,0.193,0.1961,0.1992,0.1998,0.2034,0.206,0.2054,0.2089,0.2101,0.2115,0.2149,0.2163,0.215,0.2241,0.2195,0.2199,0.2201,0.2262,0.2275,0.2286,0.2143,0.2143,0.2143,0,0,0.1859,0.1884,0.1906,0.1934,0.1977,0.2002,0.2013,0.2056,0.2078,0.2109,0.2116,0.2142,0.2169,0.2191,0.2204,0.2248,0.2268,0.2257,0.2289,0.235,0.2361,0.2371,0.2423,0.2438,0.226,0.226,0.226,0,0.1854,0.1887,0.1918,0.1947,0.1972,0.2006,0.2038,0.207,0.2108,0.2133,0.2122,0.2184,0.2192,0.2246,0.2263,0.2263,0.2298,0.2264,0.2358,0.2369,0.2378,0.2429,0.2445,0.2262,0.2262,0.2262,0.2261,0,0.1877,0.1905,0.1924,0.1973,0.2004,0.2037,0.2082,0.2116,0.2142,0.2172,0.2227,0.2242,0.2279,0.2292,0.2291,0.2368,0.2372,0.2359,0.2343,0.2394,0.2444,0.246,0.2266,0.2265,0.2264,0.2264,0,0,0.1863,0.1928,0.1935,0.1961,0.2021,0.205,0.2103,0.2165,0.2207,0.2241,0.2298,0.2336,0.235,0.2366,0.2376,0.2424,0.2523,0.2424,0.2426,0.2479,0.2664,0.2628,0.2641,0.2535,0.2538,0.254,0.2675,0,0.1875,0.1923,0.1959,0.201,0.204,0.2091,0.2137,0.2195,0.2244,0.2306,0.2346,0.2398,0.2378,0.2405,0.2453,0.2515,0.2565,0.2488,0.2604,0.2607,0.2571,0.2658,0.2464,0.2565,0.269,0.2692,0.2694,0,0.1886,0.1918,0.1964,0.2032,0.2054,0.2088,0.2176,0.2225,0.2318,0.2358,0.2418,0.2452,0.2537,0.2504,0.2635,0.2593,0.2632,0.2666,0.2672,0.2631,0.2599,0.2532,0.2588,0.272,0.2718,0.2716,0.2714,0,0.1857,0.1924,0.1959,0.198,0.2059,0.2096,0.2149,0.2237,0.2299,0.2399,0.2462,0.2541,0.2613,0.2671,0.2746,0.2706,0.2891,0.2841,0.2839,0.2837,0.269,0.267,0.2926,0.2925,0.2925,0.2925,0.2924,0,0.1851,0.1879,0.1946,0.1965,0.2013,0.2081,0.2152,0.2215,0.2326,0.2409,0.2488,0.257,0.2663,0.2772,0.28,0.2889,0.294,0.287,0.288,0.2701,0.2681,0.2817,0.2802,0.293,0.2929,0.2928,0.2927,0,0.1807,0.1854,0.1892,0.1972,0.1997,0.2032,0.215,0.2205,0.2322,0.2439,0.2482,0.2641,0.278,0.2866,0.299,0.2975,0.3043,0.305,0.2833,0.2815,0.293,0.2916,0.3062,0.3062,0.3062,0.3062,0.3062,0,0.1785,0.1799,0.1876,0.1901,0.1936,0.2002,0.2049,0.2175,0.2244,0.2472,0.2526,0.2716,0.2812,0.2997,0.3021,0.3084,0.3096,0.2918,0.279,0.2954,0.295,0.2936,0.2922,0.2619,0.2616,0.2613,0.261,0,0.1734,0.1764,0.1799,0.1849,0.1895,0.1955,0.2041,0.2097,0.2262,0.2371,0.2539,0.2645,0.2841,0.2833,0.2931,0.2926,0.2889,0.286,0.3123,0.2608,0.2546,0.2538,0.2538,0.2584,0.2587,0.2589,0.259,0.2591,0.1693,0.1702,0.1753,0.1796,0.1845,0.1903,0.1933,0.2036,0.2139,0.2283,0.2435,0.2528,0.2621,0.2667,0.2639,0.2635,0.2802,0.2674,0.268,0.2689,0.2607,0.2548,0.2571,0.2574,0.2576,0.2578,0.2579,0,0.1644,0.1671,0.1703,0.1757,0.1779,0.1837,0.1919,0.1933,0.2008,0.215,0.2255,0.2158,0.2206,0.23,0.2268,0.2298,0.2234,0.2203,0.2093,0.2125,0.2152,0.2036,0.1852,0.1849,0.1846,0.1843,0,0,0.1628,0.1642,0.1662,0.168,0.1713,0.1728,0.1758,0.178,0.1855,0.187,0.1905,0.2086,0.2237,0.1984,0.1997,0.1918,0.1987,0.1854,0.2453,0.2356,0.2377,0.2461,0.2326,0,0,0,0,0]},{"header":{"parameterUnit":"m.s-1","parameterCategory":2,"la1":30.2991,"la2":30.254,"lo1":-89.0895,"lo2":-89.0444,"dy":0.0017,"dx":0.0017,"nx":28,"ny":28,"refTime":"2025-04-28T09:00:00:Z","depth":"2","parameterNumber":3,"parameterNumberName":"V-component_of_CURRENTS"},"data":[0,0,0,0,0,0,0,0,0,0,0,0,0,0,0,0,0,0,0,0,0,0,0,0,0,0,0,0,0,0,0,0,0,0,0,0,0,0,0,0,0,0,0,0,0,0,0,0,0,0,0,0,0,0,0,0,0,0,-0.0189,-0.019,0,-0.0248,-0.0249,-0.025,-0.0285,-0.0285,-0.0285,-0.0285,-0.0369,-0.0371,-0.0373,0,0,0,0,0,0,0,0,0,0,0,0,0,-0.0137,-0.0137,-0.0189,-0.019,-0.0191,-0.0248,-0.0249,-0.025,-0.0285,-0.0285,-0.0285,-0.0285,-0.0368,-0.037,-0.0373,0,0,0,0,0,0,0,0,0,0,0,0,0,-0.0174,-0.0138,-0.0189,-0.0215,-0.0218,-0.0248,-0.0249,-0.025,-0.0285,-0.0285,-0.0285,-0.0285,-0.0367,-0.037,-0.0373,-0.0387,0,0,-0.0383,-0.0384,0,0,0,0,0,0,0,0,-0.0172,-0.0176,-0.0211,-0.0213,-0.0217,-0.026,-0.0261,-0.0297,-0.0284,-0.0259,-0.0285,-0.0285,-0.0335,-0.034,-0.035,-0.0391,-0.0394,-0.0383,-0.0385,-0.0386,-0.0387,0,0,0,0,0,0,0,-0.0169,-0.0173,-0.0212,-0.0211,-0.0215,-0.0235,-0.024,-0.0268,-0.0295,-0.0261,-0.0264,-0.0271,-0.0336,-0.0347,-0.0352,-0.0396,-0.0383,-0.0386,-0.0388,-0.0389,-0.0451,-0.0451,0,0,0,0,0,0,-0.016,-0.0171,-0.021,-0.0214,-0.0195,-0.0235,-0.0241,-0.0245,-0.0294,-0.0302,-0.0271,-0.0272,-0.0342,-0.0349,-0.0355,-0.0363,-0.0386,-0.0389,-0.0391,-0.0451,-0.0451,-0.0451,0,0,0,0,0,0,-0.0159,-0.0163,-0.0208,-0.0194,-0.0201,-0.0236,-0.024,-0.0246,-0.0251,-0.0301,-0.0309,-0.0268,-0.0342,-0.0351,-0.0375,-0.0367,-0.039,-0.0393,-0.0451,-0.0451,-0.0451,-0.0385,0,0,0,0,0,0,-0.0157,-0.0162,-0.0159,-0.0194,-0.0202,-0.0215,-0.024,-0.0247,-0.0255,-0.0258,-0.0301,-0.031,-0.0343,-0.037,-0.0378,-0.0371,-0.0396,-0.0452,-0.0451,-0.0451,-0.0387,-0.0382,-0.0378,0,0,0,0,0,-0.0155,-0.015,-0.0159,-0.0164,-0.0198,-0.0215,-0.022,-0.0246,-0.0254,-0.0251,-0.0283,-0.0308,-0.0373,-0.0372,-0.0381,-0.0376,-0.0452,-0.0451,-0.0451,-0.0389,-0.0383,-0.0378,0,0,0,0,0,0,-0.0123,-0.0154,-0.0164,-0.0168,-0.0185,-0.0221,-0.022,-0.0237,-0.0259,-0.0259,-0.0306,-0.0316,-0.0335,-0.0364,-0.0361,-0.0393,-0.0417,-0.0418,-0.0367,-0.0361,-0.0357,-0.0348,-0.0398,0,0,0,0,0,-0.0114,-0.0119,-0.0149,-0.0149,-0.0154,-0.0183,-0.0192,-0.0208,-0.0234,-0.0243,-0.0274,-0.0309,-0.0341,-0.0357,-0.0388,-0.0403,-0.0428,-0.0407,-0.0402,-0.0398,-0.0398,-0.0431,-0.0429,-0.0449,-0.0449,-0.0449,0,0,-0.0101,-0.0119,-0.0121,-0.0142,-0.0156,-0.0158,-0.0188,-0.0193,-0.0196,-0.0249,-0.0258,-0.0293,-0.0342,-0.036,-0.0371,-0.0383,-0.0402,-0.0397,-0.0393,-0.0396,-0.0431,-0.0429,-0.0427,-0.0449,-0.0449,-0.0449,0,0,-0.0075,-0.009,-0.0083,-0.0095,-0.0112,-0.0131,-0.0127,-0.0154,-0.0166,-0.0182,-0.0221,-0.025,-0.0293,-0.0329,-0.0353,-0.0342,-0.0376,-0.0349,-0.032,-0.0352,-0.0351,-0.035,-0.0359,-0.036,-0.0348,-0.0347,-0.0347,0,-0.0055,-0.0056,-0.0082,-0.0078,-0.0082,-0.0113,-0.0102,-0.012,-0.0152,-0.0159,-0.0174,-0.024,-0.028,-0.0312,-0.0312,-0.0331,-0.0347,-0.0335,-0.0345,-0.0345,-0.0345,-0.0356,-0.0357,-0.0344,-0.0345,-0.0345,-0.0345,0,-0.0029,-0.0026,-0.0019,-0.0026,-0.0032,-0.0027,-0.0053,-0.0058,-0.0076,-0.01,-0.0127,-0.0184,-0.0222,-0.0241,-0.0276,-0.0297,-0.0306,-0.0333,-0.0355,-0.0339,-0.0351,-0.0354,-0.034,-0.0341,-0.0342,-0.0342,0,0,0.0012,0.0002,0.0006,0.0015,-0.0003,-0.0002,-0.0003,-0.0015,-0.0007,-0.005,-0.0048,-0.012,-0.0148,-0.0179,-0.0225,-0.026,-0.0274,-0.0293,-0.0296,-0.0295,-0.0326,-0.0345,-0.035,-0.0301,-0.0302,-0.0302,-0.0327,0,0.0045,0.0067,0.0049,0.0076,0.0089,0.0062,0.0065,0.0049,0.0032,0.0027,-0.0039,-0.0059,-0.0125,-0.0136,-0.0183,-0.0245,-0.0281,-0.0264,-0.0349,-0.0351,-0.0365,-0.0355,-0.0325,-0.0346,-0.033,-0.033,-0.033,0,0.0081,0.0089,0.012,0.0132,0.0136,0.0145,0.0155,0.0155,0.013,0.0116,0.0077,0.003,-0.0025,-0.0081,-0.0187,-0.017,-0.0245,-0.0302,-0.0305,-0.0351,-0.0377,-0.0366,-0.0352,-0.0335,-0.0335,-0.0335,-0.0334,0,0.0127,0.0143,0.0171,0.0173,0.0176,0.019,0.0197,0.0185,0.0205,0.0178,0.0199,0.0107,0.0092,-0.0024,-0.0146,-0.0164,-0.0256,-0.0293,-0.0384,-0.0385,-0.0392,-0.0393,-0.0379,-0.0379,-0.0379,-0.0379,-0.0379,0,0.0167,0.0191,0.0197,0.0213,0.0256,0.0242,0.029,0.0281,0.0295,0.034,0.0255,0.0273,0.0104,0.0031,-0.0106,-0.0241,-0.0227,-0.0376,-0.0397,-0.0367,-0.0365,-0.0389,-0.039,-0.038,-0.0379,-0.0379,-0.0379,0,0.0208,0.0211,0.0247,0.0266,0.028,0.0313,0.0365,0.0401,0.0406,0.0469,0.0469,0.0408,0.0311,0.0142,-0.0031,-0.0165,-0.031,-0.0369,-0.0311,-0.0327,-0.0426,-0.0423,-0.0465,-0.0466,-0.0467,-0.0468,-0.0468,0,0.0229,0.0252,0.0295,0.0331,0.0342,0.0393,0.0435,0.0453,0.0507,0.0559,0.0603,0.0532,0.0486,0.0232,-0.0021,-0.0256,-0.0299,-0.0387,-0.0435,-0.042,-0.0437,-0.0433,-0.0429,-0.0406,-0.0406,-0.0406,-0.0406,0,0.0269,0.0285,0.0316,0.0394,0.0447,0.0512,0.0583,0.0646,0.0688,0.074,0.0797,0.0764,0.0533,0.0297,-0.0029,-0.0195,-0.035,-0.0396,-0.0391,-0.0394,-0.0368,-0.0383,-0.0381,-0.0406,-0.0406,-0.0406,-0.0406,-0.0406,0.0306,0.0337,0.039,0.0458,0.0533,0.0634,0.07,0.079,0.0885,0.0974,0.093,0.0902,0.0624,0.0216,-0.0064,-0.0347,-0.0354,-0.0458,-0.0456,-0.0455,-0.0449,-0.0427,-0.0473,-0.0473,-0.0474,-0.0474,-0.0474,0,0.0342,0.0385,0.0454,0.0545,0.0638,0.0671,0.08,0.0864,0.0989,0.1071,0.109,0.084,0.0577,0.0285,-0.0133,-0.041,-0.0431,-0.0485,-0.0447,-0.0446,-0.0444,-0.0438,-0.0459,-0.046,-0.046,-0.0461,0,0,0.0367,0.0433,0.046,0.0613,0.0693,0.0815,0.0894,0.0993,0.1077,0.1138,0.1142,0.1055,0.0697,0.0397,0.0025,-0.02,-0.0258,-0.0251,-0.0236,-0.0147,-0.0142,-0.0407,-0.0392,0,0,0,0,0]}],[{"header":{"parameterUnit":"m.s-1","parameterCategory":2,"la1":30.2991,"la2":30.254,"lo1":-89.0895,"lo2":-89.0444,"dy":0.0017,"dx":0.0017,"nx":28,"ny":28,"refTime":"2025-04-28T09:00:00:Z","depth":"4","parameterNumber":2,"parameterNumberName":"U-component_of_CURRENTS"},"data":[0,0,0,0,0,0,0,0,0,0,0,0,0,0,0,0,0,0,0,0,0,0,0,0,0,0,0,0,0,0,0,0,0,0,0,0,0,0,0,0,0,0,0,0,0,0,0,0,0,0,0,0,0,0,0,0,0,0,0.1174,0.1175,0,0.1223,0.1224,0.1224,0.1274,0.1275,0.1276,0.1277,0.1335,0.1336,0.1336,0,0,0,0,0,0,0,0,0,0,0,0,0,0.1101,0.1102,0.1174,0.1175,0.1176,0.1223,0.1224,0.1224,0.1274,0.1275,0.1276,0.1277,0.1335,0.1336,0.1337,0,0,0,0,0,0,0,0,0,0,0,0,0,0.1137,0.1102,0.1174,0.1208,0.1212,0.1223,0.1224,0.1224,0.1274,0.1275,0.1276,0.1278,0.1335,0.1336,0.1337,0.1316,0,0,0.134,0.134,0,0,0,0,0,0,0,0,0.1135,0.1139,0.1202,0.1206,0.121,0.1246,0.1219,0.1256,0.1273,0.1248,0.1277,0.1278,0.1307,0.131,0.1313,0.1319,0.1321,0.134,0.1341,0.1341,0.1341,0,0,0,0,0,0,0,0.1132,0.1137,0.1191,0.1203,0.1208,0.1213,0.122,0.1226,0.1267,0.125,0.1254,0.1263,0.1309,0.1312,0.1315,0.1322,0.134,0.1341,0.1342,0.1342,0.1411,0.1412,0,0,0,0,0,0,0.1131,0.1135,0.119,0.1193,0.1178,0.1214,0.1221,0.1231,0.1267,0.1275,0.1262,0.1265,0.1309,0.1313,0.1317,0.1386,0.1341,0.1342,0.1343,0.141,0.1411,0.1412,0,0,0,0,0,0,0.1129,0.1135,0.1188,0.1167,0.1174,0.1214,0.1225,0.1231,0.1262,0.1277,0.1284,0.1289,0.131,0.1315,0.1358,0.1385,0.1343,0.1344,0.1408,0.141,0.1412,0.1465,0,0,0,0,0,0,0.1127,0.1134,0.1151,0.1167,0.1176,0.1214,0.1224,0.1231,0.1265,0.127,0.1301,0.1307,0.1312,0.1356,0.1359,0.1386,0.1344,0.1407,0.1409,0.1411,0.1462,0.1468,0.1474,0,0,0,0,0,0.1124,0.1138,0.1151,0.1158,0.1194,0.1215,0.122,0.1251,0.1265,0.1282,0.1312,0.1307,0.1372,0.1358,0.1361,0.1389,0.1406,0.1408,0.1411,0.1459,0.1467,0.1474,0,0,0,0,0,0,0.1116,0.1145,0.116,0.1184,0.1208,0.1225,0.1246,0.1262,0.1296,0.131,0.1322,0.133,0.1374,0.1373,0.1358,0.1415,0.1387,0.1391,0.1423,0.143,0.1436,0.1437,0.1345,0,0,0,0,0,0.1121,0.1143,0.1167,0.119,0.1202,0.1226,0.1243,0.1263,0.129,0.1308,0.1334,0.1359,0.138,0.1402,0.1415,0.1447,0.1456,0.1466,0.1473,0.1478,0.1481,0.1521,0.1531,0.1421,0.1421,0.1421,0,0,0.1124,0.1145,0.1158,0.1191,0.1211,0.1232,0.124,0.1272,0.1298,0.1307,0.136,0.1379,0.1392,0.1432,0.1452,0.1442,0.1517,0.1481,0.1486,0.1486,0.1525,0.1536,0.1545,0.1423,0.1423,0.1422,0,0,0.1136,0.1161,0.1182,0.1203,0.1239,0.1251,0.1266,0.1299,0.1326,0.137,0.1386,0.1427,0.146,0.1481,0.1492,0.1538,0.1543,0.1545,0.1585,0.1625,0.1634,0.1643,0.1679,0.169,0.1555,0.1555,0.1555,0,0.1142,0.117,0.1191,0.1215,0.1238,0.1263,0.1287,0.131,0.1359,0.1388,0.1398,0.147,0.1481,0.1531,0.1552,0.1551,0.1577,0.1557,0.1634,0.1642,0.165,0.1685,0.1696,0.1558,0.1557,0.1557,0.1557,0,0.1158,0.1192,0.1206,0.1245,0.127,0.1296,0.1327,0.1365,0.14,0.1429,0.1497,0.1523,0.1573,0.1581,0.1582,0.1646,0.1648,0.1632,0.1615,0.1664,0.1698,0.1709,0.1562,0.1561,0.156,0.1559,0,0,0.1137,0.1205,0.1212,0.124,0.1289,0.1308,0.1357,0.1405,0.1449,0.15,0.1563,0.1605,0.1637,0.1651,0.1667,0.1701,0.1778,0.1699,0.17,0.1736,0.1878,0.1781,0.1784,0.1785,0.1787,0.1789,0.1884,0,0.1145,0.1195,0.1228,0.1277,0.1304,0.1347,0.139,0.1442,0.1494,0.1561,0.1602,0.1666,0.1658,0.1703,0.1736,0.1771,0.1809,0.1754,0.1824,0.1826,0.1734,0.1793,0.1795,0.1892,0.1895,0.1896,0.1898,0,0.1145,0.1182,0.1232,0.1304,0.132,0.1355,0.1435,0.1479,0.1567,0.1618,0.1693,0.1731,0.1809,0.1786,0.1879,0.1852,0.1872,0.1886,0.1889,0.1785,0.1749,0.183,0.1918,0.1916,0.1915,0.1913,0.1912,0,0.111,0.1183,0.1225,0.1247,0.1328,0.1369,0.1416,0.1503,0.1553,0.1669,0.173,0.1816,0.1882,0.1921,0.1962,0.1939,0.2047,0.2014,0.1943,0.1936,0.1971,0.1961,0.2068,0.2068,0.2068,0.2067,0.2067,0,0.1094,0.113,0.1218,0.1238,0.1297,0.1361,0.1434,0.1502,0.1604,0.1671,0.1765,0.1833,0.1922,0.1989,0.2001,0.2015,0.2087,0.1961,0.1957,0.1992,0.1983,0.198,0.1968,0.2071,0.207,0.2069,0.2069,0,0.1046,0.1105,0.1153,0.1246,0.1283,0.1322,0.1435,0.1483,0.16,0.1694,0.1741,0.1879,0.1976,0.2039,0.2118,0.2065,0.2083,0.2063,0.2117,0.2113,0.1936,0.1927,0.1996,0.1993,0.1991,0.1989,0.1988,0,0.1025,0.105,0.1145,0.1177,0.1223,0.1299,0.135,0.1469,0.1524,0.1704,0.1739,0.1887,0.1964,0.2003,0.2074,0.2106,0.2073,0.2069,0.1976,0.1941,0.1931,0.1925,0.1918,0.1984,0.1984,0.1983,0.1983,0,0.0978,0.1018,0.1057,0.1128,0.1184,0.1236,0.1323,0.1354,0.1493,0.1615,0.171,0.1775,0.1883,0.1947,0.1994,0.2002,0.2064,0.2045,0.2049,0.1962,0.1927,0.1918,0.1915,0.1975,0.1976,0.1977,0.1977,0,0.0939,0.0948,0.1008,0.1063,0.1129,0.1156,0.1208,0.1283,0.1353,0.1547,0.1578,0.1734,0.1866,0.1896,0.1935,0.1948,0.1911,0.1834,0.1848,0.1857,0.1767,0.17,0.1686,0,0,0,0,0,0.0891,0.0898,0.0942,0.0989,0.1053,0.1096,0.1185,0.1239,0.1375,0.1404,0.1488,0.1581,0.1671,0.1753,0.1739,0.1872,0.1911,0.1847,0.1826,0.1933,0.1942,0.1848,0,0,0,0,0,0,0.085,0.0886,0.091,0.0925,0.0951,0.1006,0.1056,0.1146,0.1168,0.1317,0.1374,0.1496,0.1603,0.1672,0.1716,0.1739,0.1695,0.1945,0.1942,0.1928,0.1936,0.1943,0.1849,0,0,0,0,0]},{"header":{"parameterUnit":"m.s-1","parameterCategory":2,"la1":30.2991,"la2":30.254,"lo1":-89.0895,"lo2":-89.0444,"dy":0.0017,"dx":0.0017,"nx":28,"ny":28,"refTime":"2025-04-28T09:00:00:Z","depth":"4","parameterNumber":3,"parameterNumberName":"V-component_of_CURRENTS"},"data":[0,0,0,0,0,0,0,0,0,0,0,0,0,0,0,0,0,0,0,0,0,0,0,0,0,0,0,0,0,0,0,0,0,0,0,0,0,0,0,0,0,0,0,0,0,0,0,0,0,0,0,0,0,0,0,0,0,0,-0.0216,-0.0216,0,-0.0259,-0.0259,-0.026,-0.0291,-0.0291,-0.0291,-0.0292,-0.0333,-0.0334,-0.0334,0,0,0,0,0,0,0,0,0,0,0,0,0,-0.0166,-0.0167,-0.0216,-0.0216,-0.0217,-0.0259,-0.0259,-0.026,-0.0291,-0.0291,-0.0291,-0.0292,-0.0333,-0.0333,-0.0334,0,0,0,0,0,0,0,0,0,0,0,0,0,-0.0196,-0.0167,-0.0216,-0.0238,-0.024,-0.0259,-0.0259,-0.026,-0.0291,-0.0291,-0.0291,-0.0292,-0.0332,-0.0333,-0.0335,-0.0333,0,0,-0.0338,-0.0339,0,0,0,0,0,0,0,0,-0.0194,-0.0197,-0.0234,-0.0236,-0.0239,-0.027,-0.0257,-0.0285,-0.029,-0.0271,-0.0292,-0.0292,-0.0312,-0.0315,-0.0321,-0.0335,-0.0337,-0.0338,-0.0339,-0.034,-0.034,0,0,0,0,0,0,0,-0.0192,-0.0196,-0.0232,-0.0235,-0.0238,-0.0248,-0.0252,-0.0262,-0.0288,-0.0273,-0.0275,-0.0281,-0.0313,-0.032,-0.0322,-0.0337,-0.0338,-0.0339,-0.034,-0.0341,-0.0362,-0.0361,0,0,0,0,0,0,-0.0187,-0.0194,-0.0231,-0.0234,-0.0218,-0.0248,-0.0253,-0.0259,-0.0288,-0.0293,-0.028,-0.0282,-0.0317,-0.0321,-0.0324,-0.0318,-0.034,-0.0341,-0.0341,-0.0362,-0.0362,-0.0361,0,0,0,0,0,0,-0.0186,-0.019,-0.0229,-0.0215,-0.0221,-0.0248,-0.0255,-0.026,-0.0272,-0.0294,-0.0299,-0.0288,-0.0318,-0.0322,-0.0333,-0.032,-0.0341,-0.0342,-0.0362,-0.0362,-0.0362,-0.0311,0,0,0,0,0,0,-0.0184,-0.0189,-0.0193,-0.0215,-0.0222,-0.0237,-0.0255,-0.0261,-0.0275,-0.0278,-0.0302,-0.0306,-0.0319,-0.0331,-0.0334,-0.0322,-0.0343,-0.0362,-0.0362,-0.0362,-0.0312,-0.0309,-0.0305,0,0,0,0,0,-0.0182,-0.0183,-0.0193,-0.0198,-0.0226,-0.0237,-0.0241,-0.0262,-0.0275,-0.0276,-0.0293,-0.0306,-0.0331,-0.0332,-0.0336,-0.0324,-0.0362,-0.0362,-0.0362,-0.0314,-0.0309,-0.0305,0,0,0,0,0,0,-0.0164,-0.0187,-0.0198,-0.0207,-0.022,-0.0242,-0.0248,-0.0262,-0.0277,-0.0282,-0.0303,-0.0308,-0.0313,-0.0328,-0.0328,-0.033,-0.0349,-0.0349,-0.0312,-0.0307,-0.0304,-0.0285,-0.0344,0,0,0,0,0,-0.0162,-0.0169,-0.019,-0.0197,-0.0204,-0.0226,-0.0235,-0.0248,-0.0264,-0.0272,-0.0288,-0.0305,-0.0313,-0.0318,-0.0331,-0.0331,-0.0356,-0.0327,-0.0324,-0.032,-0.0308,-0.0336,-0.0334,-0.036,-0.036,-0.036,0,0,-0.0157,-0.0171,-0.0175,-0.0194,-0.0207,-0.0203,-0.0233,-0.0244,-0.0236,-0.0273,-0.0271,-0.0294,-0.0312,-0.0311,-0.0315,-0.0322,-0.0329,-0.032,-0.0317,-0.0306,-0.0336,-0.0333,-0.0331,-0.036,-0.036,-0.036,0,0,-0.0143,-0.0163,-0.0161,-0.0167,-0.0184,-0.0193,-0.0195,-0.0216,-0.0223,-0.0227,-0.0249,-0.0263,-0.028,-0.0285,-0.029,-0.0275,-0.0311,-0.0285,-0.0247,-0.0275,-0.0273,-0.0271,-0.0311,-0.0313,-0.0281,-0.0281,-0.0281,0,-0.0136,-0.0135,-0.0161,-0.0155,-0.0152,-0.0184,-0.017,-0.0178,-0.0199,-0.0197,-0.022,-0.0243,-0.0262,-0.0252,-0.0248,-0.0264,-0.0295,-0.026,-0.0269,-0.0268,-0.0267,-0.0308,-0.0311,-0.0278,-0.0278,-0.0279,-0.0279,0,-0.0116,-0.0113,-0.0111,-0.011,-0.011,-0.0106,-0.0116,-0.0117,-0.0133,-0.0143,-0.0149,-0.018,-0.0193,-0.0203,-0.022,-0.0218,-0.0248,-0.0263,-0.0277,-0.0261,-0.0306,-0.031,-0.0275,-0.0275,-0.0276,-0.0277,0,0,-0.0103,-0.0097,-0.0096,-0.008,-0.0084,-0.0078,-0.0062,-0.0054,-0.0042,-0.007,-0.0061,-0.0082,-0.0112,-0.0121,-0.015,-0.0171,-0.0199,-0.0211,-0.0214,-0.0245,-0.0274,-0.0269,-0.0274,-0.0221,-0.0221,-0.0221,-0.0312,0,-0.0077,-0.0049,-0.0053,-0.0017,0.0001,-0.0009,0.0013,0.0016,0.0004,0.0003,-0.0031,-0.004,-0.0076,-0.0089,-0.0114,-0.018,-0.0206,-0.0174,-0.029,-0.0293,-0.0285,-0.0276,-0.0221,-0.0315,-0.0316,-0.0317,-0.0318,0,-0.0053,-0.0034,0.0004,0.0041,0.0047,0.0065,0.0095,0.0108,0.01,0.0087,0.0068,0.0031,-0.0,-0.0041,-0.0133,-0.0115,-0.0185,-0.0238,-0.0243,-0.0254,-0.0294,-0.0333,-0.0326,-0.0325,-0.0324,-0.0324,-0.0323,0,-0.0026,0.0009,0.0045,0.0055,0.0087,0.0108,0.0124,0.0132,0.0149,0.0134,0.0132,0.0084,0.0051,-0.0031,-0.0143,-0.0143,-0.0257,-0.0274,-0.0333,-0.0335,-0.0336,-0.0337,-0.0334,-0.0334,-0.0333,-0.0333,-0.0333,0,0.0006,0.0036,0.0061,0.008,0.0134,0.014,0.0185,0.0193,0.0199,0.0221,0.0172,0.0168,0.005,-0.0029,-0.013,-0.0246,-0.0252,-0.0321,-0.0351,-0.0316,-0.0313,-0.0341,-0.034,-0.0337,-0.0336,-0.0335,-0.0335,0,0.003,0.0043,0.0089,0.0129,0.0147,0.0181,0.0227,0.0255,0.0253,0.0276,0.0272,0.0216,0.0118,-0.0005,-0.0151,-0.0227,-0.034,-0.038,-0.034,-0.0368,-0.0405,-0.0401,-0.0449,-0.0449,-0.045,-0.045,-0.045,0,0.0046,0.007,0.0122,0.0153,0.0172,0.0221,0.0259,0.0279,0.0308,0.0309,0.0322,0.0241,0.0189,-0.0007,-0.0145,-0.0334,-0.0357,-0.0423,-0.0399,-0.0389,-0.0414,-0.0409,-0.0405,-0.0451,-0.0451,-0.0451,-0.0451,0,0.0077,0.0089,0.0124,0.0184,0.0228,0.0286,0.0335,0.0361,0.0383,0.0385,0.0372,0.0278,0.0166,0.0011,-0.0141,-0.0276,-0.0382,-0.0427,-0.0427,-0.0405,-0.0392,-0.0415,-0.0411,-0.0452,-0.0452,-0.0452,-0.0452,0,0.0093,0.0118,0.0155,0.021,0.0272,0.0327,0.0356,0.0393,0.042,0.0424,0.0415,0.03,0.0231,0.004,-0.0099,-0.0231,-0.026,-0.03,-0.0307,-0.0307,-0.0236,-0.0197,-0.0215,0,0,0,0,0,0.01,0.0121,0.0179,0.0236,0.0301,0.0333,0.0399,0.0422,0.0446,0.045,0.0437,0.034,0.0152,0.007,-0.0059,-0.0122,-0.03,-0.0279,-0.0353,-0.0459,-0.0457,-0.0396,0,0,0,0,0,0,0.0096,0.0141,0.0172,0.0249,0.0291,0.0361,0.0401,0.0422,0.043,0.0436,0.0344,0.0305,0.0121,0.0224,-0.0063,-0.0104,-0.0169,-0.0366,-0.0368,-0.046,-0.0458,-0.0457,-0.0394,0,0,0,0,0]}]]